Regional Weather Roundup
Issued by NWS

Home | Current Version | Previous Version | Text Only | Print | Product List | Glossary On
Versions: 1 2 3 4 5 6 7 8 9 10 11 12 13 14 15 16 17 18 19 20 21 22 23 24 25 26 27
000
ASUS45 KBOU 211507
RWRCO

WEATHER ROUNDUP FOR COLORADO
NATIONAL WEATHER SERVICE DENVER/BOULDER CO
900 AM MDT THU SEP 21 2017

NOTE: "FAIR" INDICATES FEW OR NO CLOUDS BELOW 12000 FEET WITH NO
SIGNIFICANT WEATHER AND/OR OBSTRUCTIONS TO VISIBILITY.

COZ001>005-013-030-031-211600-
...NORTHWEST COLORADO...

CITY           SKY/WX    TMP DP  RH WIND       PRES   REMARKS
CRAIG          FAIR      68  26  20 SW12G21   29.85R
HAYDEN         FAIR      65  28  24 SW9       29.88F
MEEKER         FAIR      66  31  27 S12G25    29.88S
RABBIT EARS PA FAIR      46  27  46 SW10G24   30.10S
STEAMBOAT SPGS FAIR      60  32  35 CALM      29.88F
WALDEN         FAIR      57  25  28 S23G30    29.95S
$$

COZ006>008-011-211600-
...WEST CENTRAL VALLEYS...

CITY           SKY/WX    TMP DP  RH WIND       PRES   REMARKS
GRAND JUNCTION FAIR      71  38  29 SE21G29   29.83S
MONTROSE       FAIR      69  29  22 SE8       29.94F
EAGLE          FAIR      67  27  22 SW16G28   29.93F
RIFLE          FAIR      66  34  30 NE3       29.87R
DELTA          NOT AVBL
NUCLA          FAIR      68  28  22 S20G25    30.00R
$$

COZ017>023-064>068-211600-
...SOUTHWEST COLORADO...

CITY           SKY/WX    TMP DP  RH WIND       PRES   REMARKS
DURANGO        FAIR      51  35  54 E7        30.11R
CORTEZ         FAIR      65  30  27 S12       30.01S
PAGOSA SPRINGS NOT AVBL
TELLURIDE      FAIR      56  22  27 SE23G35   30.14S
WOLF CREEK PAS FAIR      36  27  69 S26G37    30.34R
$$

COZ009-010-012-014-032>034-037-058>063-211600-
...CENTRAL COLORADO...

CITY           SKY/WX    TMP DP  RH WIND       PRES   REMARKS
ASPEN          FAIR      61  27  27 SE9       29.99F
BUENA VISTA    FAIR      60  23  24 SE16G24   30.03S
COPPER MTN     FAIR      50  12  22 S16G29    30.24S
BERTHOUD PASS  FAIR      37  32  81 W23G38    30.23F
COTTONWOOD PAS FAIR      59  19  21 SW22G31   30.12S
GUNNISON       FAIR      41  29  62 CALM      30.10F
KREMMLING      FAIR      55  30  38 E5        29.97F
LEADVILLE      FAIR      52  16  24 W7        30.11S
MONARCH PASS   FAIR      41  21  45 SW25G35   30.37R
SALIDA         FAIR      61  28  28 S17G26    30.10F
SUNLIGHT       FAIR      41  28  60 S12G28    30.17R
WILKERSON PASS FAIR      45  21  39 SW14G21   30.22R
$$

COZ069>075-211600-
...SAN LUIS VALLEY/SANGRE DE CRISTO MOUNTAINS...

CITY           SKY/WX    TMP DP  RH WIND       PRES   REMARKS
ALAMOSA        FAIR      62  32  32 S15       30.10R
DEL NORTE      FAIR      56  31  39 CALM      30.13R
LA VETA PASS   FAIR      48  30  49 S33       30.27R
SAGUACHE       FAIR      50  30  46 SE5       30.13R
$$

COZ035-036-038>040-211600-
...NORTHERN COLORADO FRONT RANGE...

CITY           SKY/WX    TMP DP  RH WIND       PRES   REMARKS
DENVER INTL AP FAIR      73  28  18 SW17G24   29.80S
DMNS CITY PARK   N/A     67  40  37 NE8       29.79F
AURORA         MOSUNNY   73  26  17 S18       29.82S
FRONT RANGE AP MOSUNNY   77  25  14 S16G25    29.81S
ERIE MUNI ARPT FAIR      58  33  38 CALM      29.84S
BOULDER MUN AP FAIR      59  32  36 CALM      29.79S
CENTENNIAL     FAIR      73  25  16 S12       29.84S
BROOMFIELD     MOSUNNY   64  30  27 VRB5      29.82R
FORT COLLINS   FAIR      55  37  50 CALM      29.79F
LONGMONT       FAIR      59  37  44 CALM      29.81S
$$

COZ041-046-047-076>085-087-088-211600-
...PIKES PEAK/PALMER DIVIDE AND SOUTHERN FOOTHILLS...

CITY           SKY/WX    TMP DP  RH WIND       PRES   REMARKS
COLO. SPRINGS  FAIR      66  33  29 E10       29.91S
A. F. ACADEMY  FAIR      67  26  21 SW7       29.89F
SCHRIEVER AFB  FAIR      66  32  28 S8        29.92R
CHEYENNE MTN   FAIR      64  29  27 N7        29.87R
ELLICOTT         N/A    N/A N/A N/A S12       29.90S
FALCON         NOT AVBL
FORT CARSON    FAIR      62  36  38 E8        29.87F
LIMON          FAIR      73  30  20 S17       29.85S
MONUMENT HILL  FAIR      68  27  21 SW6       29.95S
CANON CITY     SUNNY     66  36  32 CALM      29.87S
WALSENBURG     FAIR      73  34  23 SW18G28   29.93R
TRINIDAD       FAIR      73  33  23 SW14G26   29.92F
$$

COZ042>045-048>051-090-091-211600-
...NORTHEAST COLORADO...

CITY           SKY/WX    TMP DP  RH WIND       PRES   REMARKS
GREELEY ARPT   FAIR      51  38  60 CALM      29.79S
AKRON          FAIR      70  33  25 SW9       29.78S
BURLINGTON     FAIR      74  38  27 SW17      29.80S
WRAY           FAIR      63  41  45 S3        29.76F
YUMA           FAIR      55  41  58 CALM      29.77S
STERLING       FAIR      55  41  58 CALM      29.76R
HOLYOKE        NOT AVBL
FORT MORGAN    FAIR      59  35  40 NE5       29.79R
$$

COZ086-089-092>099-211600-
...SOUTHEAST COLORADO...

CITY           SKY/WX    TMP DP  RH WIND       PRES   REMARKS
PUEBLO         FAIR      60  37  42 S3        29.84S
LA JUNTA       FAIR      63  38  39 N3        29.83R
LAMAR          FAIR      62  44  51 NW3       29.79F
SPRINGFIELD      N/A     73  42  32 SW10      29.87R
$$




USA.gov is the U.S. government's official web portal to all federal, state and local government web resources and services.